Regional Weather Roundup
Issued by NWS

Home | Current Version | Previous Version | Text Only | Print | Product List | Glossary Off
Versions: 1 2 3 4 5 6 7 8 9 10 11 12 13 14 15 16 17 18 19 20 21 22 23 24 25 26 27 28 29 30 31 32 33 34 35 36 37 38 39 40 41 42 43 44 45 46 47 48 49 50

000
ASUS43 KOAX 270410
RWRNE

WEATHER ROUNDUP FOR NEBRASKA
NATIONAL WEATHER SERVICE OMAHA NE
1100 PM CDT FRI AUG 26 2016

NOTES: SATELLITE DATA IS BEING USED TO AUGMENT CLOUD COVER ABOVE
       12000 FEET.
       "FAIR" INDICATES FEW OR NO CLOUDS BELOW 12,000 FEET WITH NO
       SIGNIFICANT WEATHER AND/OR OBSTRUCTIONS TO VISIBILITY.

  * THESE STATIONS DO NOT REPORT WEATHER SUCH AS RAIN...SNOW OR FOG.

NEZ001>004-019>022-054>056-270500-
NEBRASKA PANHANDLE

CITY           SKY/WX    TMP DP  RH WIND       PRES   REMARKS
SCOTTSBLUFF    PTCLDY    57  54  89 E10       30.07R
ALLIANCE       CLEAR     53  52  96 S8        30.07R
CHADRON        CLEAR     59  53  80 NE3       30.06R
KIMBALL        CLOUDY    55  55 100 SE3       30.13R
SIDNEY         CLOUDY    55  53  93 S7        30.10S
$$

NEZ057>060-069>072-079>082-270500-
SOUTHWEST NEBRASKA

CITY           SKY/WX    TMP DP  RH WIND       PRES   REMARKS
NORTH PLATTE   PTCLDY    58  56  93 CALM      30.05S
IMPERIAL       CLEAR     54  53  97 CALM      30.08R
LEXINGTON      CLOUDY    66  57  71 W12G28    30.05R
MCCOOK         PTCLDY    56  53  90 SW6       30.06R
OGALLALA       FOG       55  53  93 SW3       30.08R VSB 3/4
$$

NEZ005>010-023>029-035>040-094-270500-
NORTH CENTRAL NEBRASKA

CITY           SKY/WX    TMP DP  RH WIND       PRES   REMARKS
VALENTINE      CLOUDY    57  55  93 E3        30.05S
AINSWORTH      MOCLDY    60  56  85 SE3       30.06F
BROKEN BOW     CLOUDY    63  61  93 S3        30.07R
O`NEILL        CLOUDY    65  58  79 SE8       30.06F
ORD            CLOUDY    64  60  87 E6        30.04F
THEDFORD       MOCLDY    59  57  96 SE3       30.06F
$$

NEZ041-046>049-061>064-073>077-083>087-270500-
SOUTH CENTRAL NEBRASKA

CITY           SKY/WX    TMP DP  RH WIND       PRES   REMARKS
GRAND ISLAND   CLOUDY    64  62  93 CALM      30.07R
AURORA         CLOUDY    64  64 100 SE3       30.06R FOG
HASTINGS       CLOUDY    64  62  93 SE5       30.07R
HEBRON         MOCLDY    66  65  96 CALM      30.04F
HOLDREGE       RAIN      64  62  91 SW10      30.05F
KEARNEY *      MOCLDY   N/A N/A N/A SE7       30.03F
YORK           CLOUDY    64  64 100 SE8       30.05S
$$

NEZ011>018-030>034-042>045-270500-
NORTHEAST NEBRASKA

CITY           SKY/WX    TMP DP  RH WIND       PRES   REMARKS
NORFOLK        CLOUDY    62  60  93 E7        30.05F
ALBION         CLOUDY    63  60  92 SE7       30.07S FOG
BLAIR          CLOUDY    66  64  92 E8        30.06F
FREMONT        CLOUDY    65  63  92 E7        30.05F
TEKAMAH        CLOUDY    65  62  90 CALM      30.06F
WAYNE          DRIZZLE   63  62  97 E6        30.07F
$$

NEZ050>053-065>068-078-088>093-270500-
SOUTHEAST NEBRASKA

CITY           SKY/WX    TMP DP  RH WIND       PRES   REMARKS
LINCOLN        CLOUDY    68  65  90 E7        30.05F
OMAHA EPPLEY   CLOUDY    67  62  84 SE3       30.06F
BEATRICE       CLOUDY    67  66  96 E5        30.05F
FALLS CITY     CLOUDY    68  67  96 N3        30.03F FOG
NEBRASKA CITY  CLOUDY    67  67 100 NE3       30.06F
PLATTSMOUTH    CLOUDY    67  65  95 E6        30.06S
$$

NEZ044-045-051>053-067-270500-
OMAHA AREA

CITY           SKY/WX    TMP DP  RH WIND       PRES   REMARKS
OMAHA EPPLEY   CLOUDY    67  62  84 SE3       30.06F
BLAIR          CLOUDY    66  64  92 E8        30.06F
FREMONT        CLOUDY    65  63  92 E7        30.05F
MILLARD        CLOUDY    68  64  85 E5        30.05F
OFFUTT AFB     MOCLDY    67  65  94 E5        30.05F
PLATTSMOUTH    CLOUDY    67  65  95 E6        30.06S
WAHOO          CLOUDY    65  64  94 E3        30.04F
$$




USA.gov is the U.S. government's official web portal to all federal, state and local government web resources and services.